Location: Diebersbach
(48.5163°N, 8.0558°E)
Time: 10:37:10
(UTC+00:00)

Cosmos 1076 Rocket - Pass Details

Date: 20 June 2021
Orbit: 590 x 611 km, 82.5° (Epoch: 03 August)

Event Time Altitude Azimuth Distance (km) Brightness Sun altitude
Exits shadow 01:49:45 16° 223° (SW) 1,543 5.0 -11.5°
Maximum altitude 01:52:41 39° 286° (WNW) 902 4.3 -11.2°
Drops below altitude 10° 01:56:42 10° 356° (N) 1,934 6.9 -10.9°
Sets 01:59:02 0° 4° (N) 2,843 8.1 -10.6°
